Morzine, France 16 day weather forecast

Slopes altitude range 950 m - 2300m

Number of lifts: 197 Pistes: 650km

In some cases the lift and piste totals shown are for the ski domain (e.g. Three Valleys) rather than individual resort (e.g. Courchevel)

Overview

The 16 day weather forecast is fully updated 4 times every day.

    • Sat 20 APR 2019
    • Sat 20
    • 6C 17C
    • Sun 21 APR 2019
    • Sun 21
    • 6C 17C
    • Mon 22 APR 2019
    • Mon 22
    • 7C 19C
    • Tue 23 APR 2019
    • Tue 23
    • 7C 17C
    • Wed 24 APR 2019
    • Wed 24
    • 7C 19C
    • Thu 25 APR 2019
    • Thu 25
    • 9C 17C
    • Fri 26 APR 2019
    • Fri 26
    • 5C 6C
    • Sat 27 APR 2019
    • Sat 27
    • -2C -1C
    • Sun 28 APR 2019
    • Sun 28
    • -3C 1C
    • Mon 29 APR 2019
    • Mon 29
    • -2C 0C
    • Tue 30 APR 2019
    • Tue 30
    • -3C 1C
    • Wed 01 MAY 2019
    • Wed 01
    • -4C 3C
    • Thu 02 MAY 2019
    • Thu 02
    • 0C 8C
    • Fri 03 MAY 2019
    • Fri 03
    • 2C 10C
    • Sat 04 MAY 2019
    • Sat 04
    • 4C 12C
    • Sun 05 MAY 2019
    • Sun 05
    • 5C 12C

Date:

Time Type 0°C level Temp Chill Snow Cloud Speed Gust Dir Press
3:00 2573m 4°C 4_5 0cm 5% 5mph 5mph 1028mB
6:00 2574m 4°C 4_4 0cm 11% 4mph 5mph 1027mB
9:00 2603m 6°C 6_2 0cm 54% 2mph 2mph 1026mB
12:00 2695m 17°C 17_3 0cm 53% 3mph 5mph 1024mB
15:00 2807m 17°C 17_4 0cm 16% 4mph 5mph 1023mB
18:00 2827m 17°C 17_3 0cm 8% 3mph 4mph 1023mB
21:00 2836m 6°C 6_5 0cm 30% 5mph 5mph 1025mB
0:00 2859m 5°C 5_5 0cm 62% 5mph 6mph 1024mB
3:00 2771m 4°C 4_5 0cm 98% 5mph 5mph 1023mB
6:00 2745m 4°C 4_4 0cm 98% 4mph 5mph 1022mB
9:00 2783m 6°C 6_1 0cm 91% 1mph 2mph 1020mB
12:00 2736m 17°C 17_4 0cm 84% 4mph 4mph 1017mB
15:00 2735m 17°C 17_4 0cm 99% 4mph 4mph 1016mB
18:00 2669m 17°C 17_1 0cm 99% 1mph 2mph 1016mB
21:00 2671m 7°C 7_4 0cm 90% 4mph 4mph 1017mB
0:00 2765m 5°C 5_5 0cm 55% 5mph 5mph 1016mB
3:00 2822m 4°C 4_5 0cm 63% 5mph 5mph 1014mB
6:00 2871m 4°C 4_4 0cm 74% 4mph 5mph 1011mB
9:00 2896m 7°C 7_1 0cm 99% 1mph 4mph 1009mB
12:00 2825m 19°C 19_2 0cm 91% 2mph 5mph 1006mB
15:00 2900m 19°C 19_2 0cm 31% 2mph 3mph 1003mB
18:00 2828m 19°C 19_3 0cm 64% 3mph 4mph 1002mB
21:00 2942m 9°C 9_4 0cm 100% 4mph 5mph 1002mB
0:00 2778m 7°C 7_4 0cm 100% 4mph 5mph 1002mB
3:00 2618m 7°C 7_4 0cm 100% 4mph 5mph 1000mB
6:00 2594m 6°C 6_4 0cm 100% 4mph 4mph 1000mB
9:00 2636m 7°C 7_1 0cm 100% 1mph 3mph 999mB
12:00 2688m 17°C 17_3 0cm 100% 3mph 5mph 999mB
15:00 2727m 17°C 17_3 0cm 92% 3mph 4mph 998mB
18:00 2696m 17°C 17_2 0cm 95% 2mph 3mph 1001mB
21:00 2725m 7°C 7_4 0cm 90% 4mph 4mph 1004mB
0:00 2806m 7°C 7_4 0cm 87% 4mph 5mph 1006mB
3:00 2787m 5°C 5_4 0cm 65% 4mph 5mph 1008mB
6:00 2929m 5°C 5_4 0cm 45% 4mph 5mph 1008mB
9:00 2815m 7°C 7_3 0cm 78% 3mph 4mph 1009mB
12:00 2890m 19°C 19_0 0cm 88% 0mph 6mph 1010mB
15:00 2888m 18°C 18_1 0cm 99% 1mph 4mph 1010mB
18:00 3009m 18°C 18_2 0cm 98% 2mph 2mph 1011mB
21:00 3244m 9°C 9_5 0cm 99% 5mph 6mph 1012mB
0:00 3231m 8°C 8_6 0cm 97% 6mph 6mph 1010mB
3:00 3230m 8°C 8_6 0cm 91% 6mph 8mph 1009mB
6:00 2980m 8°C 8_5 0cm 94% 5mph 7mph 1009mB
9:00 3061m 9°C 9_2 0cm 100% 2mph 5mph 1008mB
12:00 2892m 17°C 17_1 0cm 99% 1mph 4mph 1007mB
15:00 2847m 17°C 17_1 0cm 100% 1mph 3mph 1005mB
18:00 2640m 17°C 17_3 0cm 100% 3mph 3mph 1005mB
21:00 2534m 7°C 7_3 0cm 100% 3mph 4mph 1006mB
0:00 2228m 6°C 6_3 0cm 100% 3mph 4mph 1006mB
3:00 2118m 5°C 5_3 0cm 100% 3mph 4mph 1006mB
6:00 2110m 4°C 4_2 0cm 100% 2mph 3mph 1007mB
9:00 2131m 5°C 5_2 0cm 100% 2mph 3mph 1008mB
12:00 2000m 6°C 6_4 0cm 100% 4mph 6mph 1009mB
15:00 1891m 5°C 5_4 0cm 100% 4mph 6mph 1010mB
18:00 1869m 5°C 5_4 0cm 100% 4mph 6mph 1013mB
21:00 1941m 4°C 4_4 0cm 100% 4mph 5mph 1015mB
0:00 1812m 3°C 3_4 0cm 100% 4mph 5mph 1016mB
3:00 1797m 3°C 3_3 0cm 100% 3mph 4mph 1017mB
6:00 1768m 3°C 3_4 0cm 100% 4mph 7mph 1018mB
9:00 1956m -2°C -2_8 3cm 99% 8mph 10mph 1017mB
12:00 1917m -1°C -1_7 2cm 98% 7mph 9mph 1018mB
15:00 1828m -1°C -1_8 1cm 98% 8mph 10mph 1019mB
18:00 1753m -1°C -1_8 1cm 98% 8mph 12mph 1021mB
21:00 1692m -3°C -3_7 1cm 97% 7mph 12mph 1023mB
0:00 1656m -3°C -3_6 1cm 96% 6mph 9mph 1022mB
3:00 1571m -4°C -4_5 0cm 92% 5mph 7mph 1022mB
6:00 1619m -5°C -5_4 0cm 86% 4mph 5mph 1022mB
9:00 2061m -3°C -3_5 0cm 50% 5mph 7mph 1020mB
12:00 2181m 1°C 1_6 0cm 71% 6mph 7mph 1019mB
15:00 2216m 1°C 1_6 0cm 97% 6mph 8mph 1018mB
18:00 2026m 1°C 1_4 0cm 76% 4mph 5mph 1019mB
21:00 1430m -5°C -5_2 0cm 48% 2mph 2mph 1022mB
0:00 1089m -7°C -7_2 0cm 35% 2mph 3mph 1021mB
3:00 1294m -7°C -7_2 0cm 40% 2mph 2mph 1021mB
6:00 1777m -7°C -7_3 0cm 64% 3mph 3mph 1020mB
9:00 2028m -2°C -2_4 1cm 94% 4mph 5mph 1018mB
12:00 2084m 0°C 0_4 1cm 96% 4mph 5mph 1017mB
15:00 2142m 0°C 0_5 1cm 94% 5mph 6mph 1015mB
18:00 2071m 1°C 1_4 1cm 96% 4mph 5mph 1015mB
Morning 0.0208333mm 0 1465m -4°C -4_5 0cm 77% 5mph 8mph 1014mB
Afternoon 0.151042mm 0.5625 1574m 1°C 1_8 4cm 96% 8mph 12mph 1012mB
Morning 0.119792mm 0.0625 1267m -6°C -6_4 1cm 80% 4mph 6mph 1016mB
Afternoon 0.015625mm 0.0625 1967m 3°C 3_5 0cm 52% 5mph 7mph 1015mB
Morning 0mm 0 1965m -4°C -4_4 0cm 10% 4mph 6mph 1016mB
Afternoon 0mm 0 2398m 8°C 8_5 0cm 3% 5mph 7mph 1013mB
Morning 0mm 0 2741m -2°C -2_4 0cm 6% 4mph 4mph 1015mB
Afternoon 0mm 0 2811m 10°C 10_3 0cm 3% 3mph 5mph 1014mB
Morning 0mm 0 2725m 0°C 0_3 0cm 23% 3mph 3mph 1017mB
Afternoon 0.0104167mm 0.125 2856m 12°C 12_5 0cm 33% 5mph 7mph 1015mB
Morning 0mm 0 2877m 1°C 1_3 0cm 7% 3mph 5mph 1015mB
Afternoon 0.00520833mm 0.0625 2790m 12°C 12_7 0cm 6% 7mph 11mph 1011mB

16 day outlook at a glance

Forecast issued: 20/04/2019 06:34:18

Chat

Your comments and questions. In a resort? Let us know what it's like!


Characters left 250

For terms and conditions see Readers Comments on the Cookie and privacy policy page.